When you browse on this site, cookies collect data to enhance your experience and personalize the content and advertising you see.
Visit our Privacy Policy to learn more. By continuing to use the site, you agree to this use of cookies and data.
  • In Sweden
  • List of Countries
  • For 7 days
  • Water Temperature
  • Satellite Maps
  • Weather Map
  • Weather Widgets
  • user-avatar
    Login

    Hourly Weather Ostoja

    Today, 24 May, Friday

    Time Temperature Precipitation Wind Pressure Humidity
    00:00 +11°C° 0 mm 3 mps 742 mmHg 87%
    01:00 +9°C° 0 mm 2 mps 742 mmHg 88%
    02:00 +9°C° 0 mm 2 mps 742 mmHg 89%
    03:00 +8°C° 0 mm 2 mps 742 mmHg 91%
    04:00 +8°C° 0 mm 2 mps 742 mmHg 92%
    05:00 +10°C° 0 mm 2 mps 742 mmHg 88%
    06:00 +12°C° 0 mm 2 mps 742 mmHg 83%
    07:00 +14°C° 0 mm 2 mps 742 mmHg 82%
    08:00 +15°C° 0 mm 2 mps 742 mmHg 80%
    09:00 +15°C° 0 mm 2 mps 742 mmHg 78%
    10:00 +16°C° 0 mm 2 mps 742 mmHg 76%
    11:00 +16°C° 0 mm 2 mps 742 mmHg 74%
    12:00 +17°C° 0 mm 2 mps 741 mmHg 71%
    13:00 +18°C° 0 mm 1 mps 741 mmHg 68%
    14:00 +19°C° 0 mm 1 mps 741 mmHg 67%
    15:00 +19°C° 0 mm 1 mps 741 mmHg 65%
    16:00 +19°C° 0 mm 1 mps 741 mmHg 64%
    17:00 +18°C° 0 mm 1 mps 741 mmHg 66%
    18:00 +18°C° 0 mm 1 mps 740 mmHg 69%
    19:00 +16°C° 0 mm 1 mps 740 mmHg 72%
    20:00 +15°C° 0 mm 1 mps 740 mmHg 74%
    21:00 +14°C° 0 mm 1 mps 740 mmHg 75%
    22:00 +12°C° 0 mm 1 mps 740 mmHg 77%
    23:00 +12°C° 0 mm 1 mps 740 mmHg 77%

    Tomorrow, 25 May, Saturday

    Time Temperature Precipitation Wind Pressure Humidity
    00:00 +11°C° 0 mm 1 mps 740 mmHg 77%
    01:00 +11°C° 0 mm 1 mps 740 mmHg 77%
    02:00 +10°C° 0 mm 2 mps 740 mmHg 77%
    03:00 +9°C° 0 mm 2 mps 740 mmHg 77%
    04:00 +9°C° 0 mm 2 mps 740 mmHg 76%
    05:00 +12°C° 0 mm 2 mps 740 mmHg 74%
    06:00 +12°C° 0 mm 3 mps 740 mmHg 71%
    07:00 +14°C° 0 mm 3 mps 740 mmHg 69%
    08:00 +17°C° 0.1 mm 3 mps 740 mmHg 67%
    09:00 +18°C° 0.1 mm 4 mps 740 mmHg 65%
    10:00 +20°C° 0.1 mm 4 mps 740 mmHg 63%
    11:00 +20°C° 0.3 mm 4 mps 740 mmHg 62%
    12:00 +21°C° 0.3 mm 5 mps 740 mmHg 62%
    13:00 +21°C° 0.3 mm 5 mps 740 mmHg 62%
    14:00 +21°C° 0.1 mm 5 mps 740 mmHg 61%
    15:00 +21°C° 0.1 mm 5 mps 740 mmHg 60%
    16:00 +21°C° 0.1 mm 5 mps 740 mmHg 59%
    17:00 +19°C° 0 mm 4 mps 740 mmHg 65%
    18:00 +18°C° 0 mm 3 mps 740 mmHg 70%
    19:00 +17°C° 0 mm 2 mps 740 mmHg 75%
    20:00 +16°C° 0 mm 2 mps 740 mmHg 78%
    21:00 +15°C° 0 mm 1 mps 740 mmHg 81%
    22:00 +14°C° 0 mm 1 mps 741 mmHg 84%
    23:00 +13°C° 0 mm 1 mps 741 mmHg 86%

    Day after tomorrow, 26 May, Sunday

    Time Temperature Precipitation Wind Pressure Humidity
    00:00 +13°C° 0 mm 1 mps 741 mmHg 88%
    01:00 +12°C° 0 mm 2 mps 741 mmHg 89%
    02:00 +12°C° 0 mm 2 mps 741 mmHg 90%
    03:00 +11°C° 0 mm 1 mps 741 mmHg 91%
    04:00 +11°C° 0 mm 1 mps 741 mmHg 91%
    05:00 +12°C° 0 mm 2 mps 741 mmHg 85%
    06:00 +14°C° 0 mm 2 mps 741 mmHg 79%
    07:00 +15°C° 0 mm 2 mps 741 mmHg 73%
    08:00 +16°C° 0 mm 3 mps 741 mmHg 68%
    09:00 +18°C° 0 mm 4 mps 741 mmHg 64%
    10:00 +19°C° 0 mm 4 mps 741 mmHg 59%
    11:00 +19°C° 0 mm 4 mps 741 mmHg 58%
    12:00 +20°C° 0 mm 5 mps 740 mmHg 57%
    13:00 +21°C° 0 mm 5 mps 740 mmHg 55%
    14:00 +21°C° 0 mm 5 mps 740 mmHg 56%
    15:00 +21°C° 0 mm 5 mps 739 mmHg 56%
    16:00 +21°C° 0 mm 5 mps 739 mmHg 57%
    17:00 +20°C° 0 mm 4 mps 739 mmHg 62%
    18:00 +19°C° 0 mm 3 mps 739 mmHg 68%
    19:00 +18°C° 0 mm 2 mps 739 mmHg 73%
    20:00 +17°C° 0 mm 2 mps 739 mmHg 76%
    21:00 +16°C° 0 mm 3 mps 740 mmHg 79%
    22:00 +14°C° 0 mm 3 mps 740 mmHg 82%
    23:00 +14°C° 0 mm 3 mps 740 mmHg 84%

    27 May, Monday

    Time Temperature Precipitation Wind Pressure Humidity
    00:00 +13°C° 0 mm 3 mps 740 mmHg 85%
    01:00 +13°C° 0 mm 3 mps 740 mmHg 87%
    02:00 +12°C° 0 mm 3 mps 739 mmHg 88%
    03:00 +12°C° 0 mm 3 mps 739 mmHg 89%
    04:00 +12°C° 0 mm 3 mps 739 mmHg 89%
    05:00 +14°C° 0 mm 3 mps 739 mmHg 85%
    06:00 +17°C° 0 mm 4 mps 739 mmHg 81%
    07:00 +19°C° 0 mm 4 mps 739 mmHg 76%
    08:00 +20°C° 0 mm 5 mps 739 mmHg 70%
    09:00 +22°C° 0 mm 5 mps 739 mmHg 63%
    10:00 +23°C° 0 mm 6 mps 739 mmHg 57%
    11:00 +24°C° 0 mm 6 mps 738 mmHg 54%
    12:00 +24°C° 0 mm 6 mps 738 mmHg 52%
    13:00 +25°C° 0 mm 5 mps 738 mmHg 50%
    14:00 +25°C° 0 mm 5 mps 738 mmHg 53%
    15:00 +25°C° 0 mm 5 mps 738 mmHg 56%
    16:00 +23°C° 0 mm 5 mps 738 mmHg 59%
    17:00 +22°C° 0 mm 5 mps 737 mmHg 66%
    18:00 +21°C° 0 mm 4 mps 737 mmHg 72%
    19:00 +20°C° 0 mm 4 mps 737 mmHg 79%
    20:00 +19°C° 0 mm 3 mps 737 mmHg 81%
    21:00 +18°C° 0 mm 3 mps 737 mmHg 82%
    22:00 +17°C° 0 mm 3 mps 737 mmHg 84%
    23:00 +17°C° 0 mm 3 mps 737 mmHg 86%

    28 May, Tuesday

    Time Temperature Precipitation Wind Pressure Humidity
    00:00 +17°C° 0 mm 2 mps 737 mmHg 87%
    01:00 +16°C° 0 mm 2 mps 737 mmHg 89%
    02:00 +16°C° 0 mm 2 mps 737 mmHg 89%
    03:00 +16°C° 0 mm 2 mps 736 mmHg 90%
    04:00 +16°C° 0 mm 1 mps 736 mmHg 91%
    05:00 +18°C° 0.7 mm 1 mps 736 mmHg 91%
    06:00 +18°C° 0.7 mm 1 mps 736 mmHg 91%
    07:00 +18°C° 0.7 mm 1 mps 736 mmHg 91%
    08:00 +18°C° 2.9 mm 1 mps 735 mmHg 92%
    09:00 +16°C° 2.9 mm 0 mps 735 mmHg 93%
    10:00 +16°C° 2.9 mm 0 mps 735 mmHg 93%
    11:00 +20°C° 0.4 mm 1 mps 735 mmHg 87%
    12:00 +21°C° 0.4 mm 1 mps 735 mmHg 80%
    13:00 +23°C° 0.4 mm 1 mps 735 mmHg 74%
    14:00 +22°C° 0.9 mm 1 mps 735 mmHg 75%
    15:00 +21°C° 0.9 mm 2 mps 735 mmHg 76%
    16:00 +21°C° 0.9 mm 2 mps 735 mmHg 78%
    17:00 +20°C° 1.7 mm 2 mps 735 mmHg 82%
    18:00 +19°C° 1.7 mm 2 mps 735 mmHg 86%
    19:00 +18°C° 1.7 mm 2 mps 735 mmHg 90%
    20:00 +17°C° 1.1 mm 3 mps 735 mmHg 92%
    21:00 +17°C° 1.1 mm 3 mps 736 mmHg 94%
    22:00 +15°C° 1.1 mm 4 mps 736 mmHg 95%
    23:00 +15°C° 0.9 mm 4 mps 736 mmHg 95%

    29 May, Wednesday

    Time Temperature Precipitation Wind Pressure Humidity
    00:00 +14°C° 0.9 mm 5 mps 736 mmHg 96%
    01:00 +13°C° 0.9 mm 5 mps 736 mmHg 96%
    02:00 +13°C° 0.3 mm 5 mps 736 mmHg 95%
    03:00 +12°C° 0.3 mm 5 mps 737 mmHg 95%
    04:00 +12°C° 0.3 mm 5 mps 737 mmHg 94%
    05:00 +10°C° 0.4 mm 6 mps 737 mmHg 94%
    06:00 +10°C° 0.4 mm 6 mps 738 mmHg 94%
    07:00 +10°C° 0.4 mm 6 mps 738 mmHg 93%
    08:00 +9°C° 0.4 mm 6 mps 739 mmHg 93%
    09:00 +9°C° 0.4 mm 6 mps 739 mmHg 92%
    10:00 +9°C° 0.4 mm 6 mps 740 mmHg 91%
    11:00 +10°C° 0.1 mm 6 mps 740 mmHg 88%
    12:00 +10°C° 0.1 mm 5 mps 741 mmHg 85%
    13:00 +12°C° 0.1 mm 5 mps 741 mmHg 82%
    14:00 +13°C° 0 mm 5 mps 742 mmHg 79%
    15:00 +14°C° 0 mm 4 mps 742 mmHg 75%
    16:00 +15°C° 0 mm 4 mps 743 mmHg 72%
    17:00 +14°C° 0.1 mm 3 mps 743 mmHg 75%
    18:00 +14°C° 0.1 mm 3 mps 744 mmHg 79%
    19:00 +14°C° 0.1 mm 2 mps 744 mmHg 82%
    20:00 +14°C° 0.1 mm 2 mps 745 mmHg 83%
    21:00 +12°C° 0.1 mm 3 mps 745 mmHg 84%
    22:00 +12°C° 0.1 mm 3 mps 746 mmHg 84%
    23:00 +11°C° 0 mm 3 mps 746 mmHg 84%
    Show more